TimeAKDT,TemperatureF,Dew PointF,Humidity,Sea Level PressureIn,VisibilityMPH,Wind Direction,Wind SpeedMPH,Gust SpeedMPH,PrecipitationIn,Events,Conditions,WindDirDegrees,DateUTC
12:53 AM,45.0,43.0,93,29.54,10.0,NE,10.4,-,0.01,Rain,Light Rain,40,2013-08-04 08:53:00
1:53 AM,45.0,43.0,93,29.53,10.0,NE,10.4,-,0.00,Rain,Light Rain,50,2013-08-04 09:53:00
2:53 AM,45.0,43.0,93,29.52,10.0,ENE,10.4,-,0.00,Rain,Light Rain,60,2013-08-04 10:53:00
3:53 AM,45.0,43.0,93,29.52,3.0,NE,9.2,-,0.00,,Overcast,50,2013-08-04 11:53:00
4:03 AM,44.6,42.8,93,29.51,4.0,NE,9.2,-,N/A,,Overcast,50,2013-08-04 12:03:00
4:31 AM,44.6,42.8,93,29.50,5.0,NE,9.2,-,N/A,,Overcast,40,2013-08-04 12:31:00
4:53 AM,45.0,43.0,93,29.51,2.0,NE,8.1,-,N/A,,Overcast,40,2013-08-04 12:53:00
5:23 AM,44.6,42.8,93,29.51,1.2,NE,5.8,-,N/A,,Overcast,50,2013-08-04 13:23:00
5:53 AM,45.0,43.0,93,29.51,0.2,ENE,5.8,-,N/A,Fog,Fog,60,2013-08-04 13:53:00
6:31 AM,44.6,44.6,100,29.50,0.8,NE,8.1,-,N/A,,Mist,50,2013-08-04 14:31:00
6:50 AM,44.6,44.6,100,29.50,0.8,ENE,5.8,-,N/A,,Mist,60,2013-08-04 14:50:00
6:53 AM,45.0,44.1,97,29.50,1.0,ENE,4.6,-,N/A,,Mist,60,2013-08-04 14:53:00
7:04 AM,44.6,44.6,100,29.50,0.8,ENE,5.8,-,N/A,,Mist,60,2013-08-04 15:04:00
7:53 AM,46.0,44.1,93,29.51,0.2,NE,4.6,-,0.00,Fog,Fog,50,2013-08-04 15:53:00
8:53 AM,46.0,45.0,96,29.51,0.2,NNE,5.8,-,0.00,Fog-Rain,Light Rain,20,2013-08-04 16:53:00
9:29 AM,46.4,44.6,93,29.51,2.0,ENE,3.5,-,0.00,Rain,Light Rain,60,2013-08-04 17:29:00
9:53 AM,46.9,45.0,93,29.52,4.0,NE,4.6,-,0.00,,Overcast,40,2013-08-04 17:53:00
10:53 AM,48.0,45.0,89,29.52,8.0,NNW,5.8,-,0.00,,Overcast,340,2013-08-04 18:53:00
11:08 AM,46.4,44.6,93,29.53,1.8,North,5.8,-,N/A,,Overcast,360,2013-08-04 19:08:00
11:50 AM,46.4,44.6,93,29.53,0.8,North,9.2,-,N/A,,Mist,350,2013-08-04 19:50:00
11:53 AM,46.9,44.1,90,29.54,0.5,North,10.4,-,N/A,Fog,Fog,360,2013-08-04 19:53:00
12:53 PM,46.9,45.0,93,29.54,0.8,North,10.4,-,N/A,,Mist,10,2013-08-04 20:53:00
1:01 PM,46.4,44.6,93,29.54,1.2,North,10.4,-,N/A,,Overcast,10,2013-08-04 21:01:00
1:22 PM,44.6,42.8,93,29.55,2.0,North,10.4,-,N/A,,Overcast,360,2013-08-04 21:22:00
1:53 PM,45.0,43.0,93,29.56,2.0,North,9.2,-,N/A,,Overcast,360,2013-08-04 21:53:00
2:21 PM,44.6,42.8,93,29.56,1.5,North,9.2,-,N/A,,Overcast,10,2013-08-04 22:21:00
2:39 PM,44.6,42.8,93,29.56,2.5,North,11.5,-,N/A,,Overcast,360,2013-08-04 22:39:00
2:53 PM,45.0,42.1,90,29.57,8.0,North,11.5,-,N/A,,Overcast,10,2013-08-04 22:53:00
3:11 PM,44.6,42.8,93,29.56,9.0,North,10.4,-,N/A,,Overcast,360,2013-08-04 23:11:00
3:53 PM,44.1,42.1,93,29.58,6.0,North,11.5,-,0.00,Rain,Light Rain,350,2013-08-04 23:53:00
4:53 PM,42.1,39.0,89,29.59,10.0,NNW,12.7,-,0.00,,Overcast,340,2013-08-05 00:53:00
5:53 PM,41.0,37.9,89,29.60,10.0,North,13.8,-,N/A,,Overcast,350,2013-08-05 01:53:00
6:53 PM,41.0,37.0,86,29.62,10.0,North,10.4,-,N/A,,Overcast,350,2013-08-05 02:53:00
7:53 PM,39.0,37.0,93,29.63,10.0,NNW,11.5,-,0.00,Rain,Light Rain,340,2013-08-05 03:53:00
8:53 PM,37.9,36.0,93,29.65,9.0,North,11.5,-,0.00,Rain,Light Rain,360,2013-08-05 04:53:00
9:53 PM,37.9,35.1,89,29.67,10.0,NNW,11.5,-,0.00,Rain,Light Rain,340,2013-08-05 05:53:00
10:53 PM,37.0,35.1,93,29.69,8.0,NNW,12.7,-,0.00,,Overcast,340,2013-08-05 06:53:00
11:53 PM,37.0,34.0,89,29.71,10.0,North,11.5,-,0.00,Rain,Light Rain,350,2013-08-05 07:53:00